Location: *
(49.0044°N, 9.5056°E)
Time: 10:53:01
(UTC+00:00)

H-2A R/B - Pass Details

Date: 22 September 2019
Orbit: 734 x 836 km, 98.3° (Epoch: 22 October)

Event Time Altitude Azimuth Distance (km) Brightness Sun altitude
Exits shadow 18:40:24 15° 138° (SE) 1,909 3.5 -13.7°
Maximum altitude 18:44:13 48° 68° (ENE) 986 2.2 -14.3°
Drops below altitude 10° 18:49:07 10° 356° (N) 2,323 4.8 -15.1°
Sets 18:51:31 0° 351° (N) 3,270 5.7 -15.4°
